Flag for Germany Weather past 2 weeks in Minden, North Rhine-Westphalia, Germany

Now
59 °F

Rain showers. Broken clouds.


Feels Like: 56 °F
Forecast: 47 / 57 °F
Wind: 17 mph from West

Location: Bueckeburg

Current Time: Oct 20, 2014 at 3:31:07 PM

Latest Report: Oct 20, 2014 at 2:49 PM


Visibility: N/A

Pressure: 29.95 "Hg

Humidity: 82%

Dew point: 54 °F

Location of MindenLocation

Historic Weather in Minden — Graph

°F

Minden temperature yesterday

Maximum temperature yesterday: 73 °F (at 2:20 PM)
Minimum temperature yesterday: 59 °F (at 8:20 AM)
Average temperature yesterday: 65 °F

Past Weeks' High & Low Weather Summary

 TemperatureHumidityPressure
High73 °F (Oct 19, 2:20 PM)100% (Oct 11, 2:20 AM)30.15 "Hg (Oct 11, 2:20 AM)
Low48 °F (Oct 6, 6:20 AM)49% (Oct 14, 4:20 PM)29.53 "Hg (Oct 7, 1:20 PM)
Average58 °F81%29.83 "Hg
* Reported Oct 5 2:20 PM — Oct 20 2:20 PM, Minden, Weather by CustomWeather, © 2014

Note: Actual official high and low records may vary slightly from our data, if they occured in-between our weather recording intervals... More about our weather records

Advertising

Minden weather history for previous 24 hours

 ConditionsComfort  
Time TempWeatherWind HumidityBarometerVisibility
2:20 PM
Oct 20
61 °FSprinkles. Partly sunny.16 mph72%29.95 "HgN/A
1:20 PM61 °FPartly sunny.20 mph77%29.95 "HgN/A
12:20 PM59 °FSprinkles. Broken clouds.22 mph82%29.95 "HgN/A
11:20 AM59 °FPartly sunny.16 mph77%29.95 "HgN/A
10:20 AM57 °FBroken clouds.16 mph82%29.95 "HgN/A
9:20 AM57 °FPartly sunny.15 mph82%29.95 "HgN/A
8:20 AM57 °FPartly cloudy.16 mph82%29.92 "HgN/A
7:20 AM57 °FPartly cloudy.14 mph82%29.92 "HgN/A
5:20 AM57 °FPassing clouds.10 mph82%29.92 "HgN/A
4:20 AM57 °FPassing clouds.13 mph82%29.92 "HgN/A
3:20 AM57 °FPassing clouds.10 mph82%29.95 "HgN/A
2:20 AM57 °FPassing clouds.10 mph88%29.95 "HgN/A
1:20 AM59 °FPassing clouds.15 mph82%29.95 "HgN/A
12:20 AM59 °FPassing clouds.9 mph88%29.92 "HgN/A
11:20 PM
Oct 19
61 °FPassing clouds.12 mph88%29.92 "HgN/A
10:20 PM61 °FPartly cloudy.10 mph94%29.92 "HgN/A
9:20 PM61 °FPassing clouds.13 mph88%29.89 "HgN/A
8:20 PM63 °FSprinkles. Partly cloudy.17 mph94%29.89 "HgN/A
7:20 PM70 °FPartly sunny.16 mph69%29.89 "HgN/A
6:20 PM72 °FPartly sunny.14 mph61%29.86 "HgN/A
5:20 PM72 °FScattered clouds.16 mph61%29.89 "HgN/A
4:20 PM73 °FPassing clouds.13 mph57%29.89 "HgN/A
3:20 PM73 °FPassing clouds.14 mph57%29.89 "HgN/A
Weather by CustomWeather, © 2014

See weather overviewHow to use our weather pages